Weather History for KIGQ - May, 2013

Change the Weather History Date:

Wednesday, May 22, 2013

  Actual Average (KMDW) Record (KMDW)
Temperature  
Mean Temperature 68 °F 63 °F  
Max Temperature 73 °F 72 °F 93 °F (1977)
Min Temperature 61 °F 53 °F 40 °F (1929)
Degree Days  
Heating Degree Days 0 5  
Month to date heating degree days 155  
Since 1 July heating degree days 5926  
Cooling Degree Days 2 2  
Month to date cooling degree days 33  
Year to date cooling degree days 46  
Growing Degree Days 18 (Base 50)    
Moisture  
Dew Point 60 °F    
Average Humidity 76    
Maximum Humidity 94    
Minimum Humidity 49    
Precipitation  
Precipitation 0.08 in 0.14 in 1.11 in (1955)
Month to date precipitation 2.86  
Year to date precipitation 13.22  
Sea Level Pressure  
Sea Level Pressure 29.69 in    
Wind  
Wind Speed 10 mph (SW)    
Max Wind Speed 20 mph    
Max Gust Speed 26 mph    
Visibility 10 miles    
Events Rain , Thunderstorm    
T = Trace of Precipitation, MM = Missing Value Source: NWS Daily Summary

Daily Weather History Graph

Daily Weather History Graph

Search for Another Location

Airport or City:

Trip Planner

Search our weather history database for the weather conditions in past years. The results will help you decide how hot, cold, wet, or windy it might be!

Date:

Astronomy

May. 22, 2013 Rise Set
Actual Time 5:24 AM CDT 8:09 PM CDT
Civil Twilight 4:52 AM CDT 8:42 PM CDT
Nautical Twilight 4:11 AM CDT 9:22 PM CDT
Astronomical Twilight 3:25 AM CDT 10:09 PM CDT
Moon 5:29 PM CDT (5/22) 3:30 AM CDT (5/22)
Length of Visible Light 15h 49m
Length of Day
14h 45m
Waxing Gibbous, 91% of the Moon is Illuminated
May 22
Waxing Gibbous
May 24
Full
May 31
Last Quarter
Jun 8
New
Jun 16
First Quarter

Hourly Weather History & Observations

Time (CDT) Temp. Dew Point Humidity Pressure Visibility Wind Dir Wind Speed Gust Speed Precip Events Conditions
12:15 AM 70.9 °F 63.9 °F 78% 29.70 in 10.0 mi South 10.4 mph - N/A   Overcast
12:35 AM 70.7 °F 63.7 °F 78% 29.70 in 10.0 mi SSW 9.2 mph - N/A   Overcast
12:55 AM 70.9 °F 63.3 °F 77% 29.70 in 10.0 mi SSW 10.4 mph 16.1 mph N/A   Overcast
1:15 AM 70.5 °F 63.1 °F 77% 29.70 in 10.0 mi SSW 10.4 mph - N/A   Overcast
1:35 AM 70.2 °F 63.5 °F 79% 29.69 in 10.0 mi SSW 9.2 mph - N/A   Overcast
1:55 AM 70.0 °F 63.5 °F 80% 29.68 in 10.0 mi SSW 5.8 mph - N/A   Overcast
2:15 AM 69.8 °F 63.5 °F 80% 29.69 in 10.0 mi SSW 8.1 mph - N/A   Overcast
2:35 AM 69.6 °F 63.9 °F 82% 29.68 in 10.0 mi South 6.9 mph - N/A   Overcast
2:55 AM 69.3 °F 64.4 °F 84% 29.68 in 10.0 mi South 6.9 mph - N/A   Overcast
3:15 AM 69.1 °F 64.6 °F 86% 29.68 in 10.0 mi South 8.1 mph - N/A   Overcast
3:35 AM 69.1 °F 64.4 °F 85% 29.68 in 10.0 mi South 6.9 mph - N/A   Overcast
3:55 AM 68.9 °F 63.7 °F 83% 29.68 in 10.0 mi South 9.2 mph - N/A   Overcast
4:15 AM 68.5 °F 62.6 °F 81% 29.68 in 10.0 mi South 12.7 mph 17.3 mph N/A   Overcast
4:35 AM 68.2 °F 62.2 °F 81% 29.67 in 10.0 mi SSW 9.2 mph 17.3 mph N/A   Overcast
4:55 AM 68.0 °F 62.6 °F 83% 29.67 in 10.0 mi SSW 9.2 mph - N/A   Overcast
5:15 AM 67.3 °F 62.6 °F 85% 29.67 in 10.0 mi SSW 10.4 mph - N/A Rain Light Rain
5:35 AM 67.1 °F 62.6 °F 85% 29.67 in 10.0 mi SSW 11.5 mph - N/A   Overcast
5:55 AM 67.1 °F 62.6 °F 85% 29.66 in 10.0 mi SSW 11.5 mph - N/A   Overcast
6:15 AM 66.7 °F 63.0 °F 88% 29.67 in 10.0 mi SSW 8.1 mph - N/A   Overcast
6:35 AM 67.1 °F 63.1 °F 87% 29.67 in 10.0 mi SSW 9.2 mph - N/A   Overcast
6:55 AM 66.6 °F 63.5 °F 90% 29.68 in 10.0 mi SSW 9.2 mph - N/A Rain Light Rain
7:15 AM 66.4 °F 63.7 °F 91% 29.67 in 7.0 mi SSW 9.2 mph - N/A Rain Rain
7:35 AM 66.2 °F 63.9 °F 92% 29.66 in 5.0 mi SSW 9.2 mph - 0.01 in Rain Light Rain
7:55 AM 66.4 °F 64.4 °F 93% 29.67 in 5.0 mi SW 8.1 mph - 0.02 in Rain Light Rain
8:15 AM 66.2 °F 64.4 °F 94% 29.66 in 5.0 mi SSW 5.8 mph - N/A Rain Light Rain
8:35 AM 66.4 °F 64.4 °F 93% 29.65 in 7.0 mi South 5.8 mph - N/A   Light Drizzle
8:55 AM 66.6 °F 64.2 °F 92% 29.64 in 10.0 mi SSE 3.5 mph - N/A   Overcast
9:15 AM 68.0 °F 64.9 °F 90% 29.66 in 10.0 mi South 8.1 mph - N/A   Overcast
9:35 AM 69.3 °F 64.9 °F 86% 29.67 in 10.0 mi SSW 9.2 mph - N/A   Mostly Cloudy
9:55 AM 70.2 °F 63.9 °F 80% 29.67 in 10.0 mi SW 9.2 mph - N/A   Overcast
10:15 AM 71.1 °F 63.0 °F 75% 29.67 in 10.0 mi SSW 13.8 mph - N/A   Overcast
10:35 AM 71.8 °F 63.1 °F 74% 29.66 in 10.0 mi South 12.7 mph - N/A   Overcast
10:55 AM 70.5 °F 62.6 °F 76% 29.67 in 10.0 mi South 15.0 mph 20.7 mph N/A   Overcast
11:15 AM 71.1 °F 63.3 °F 76% 29.67 in 10.0 mi South 19.6 mph 26.5 mph N/A   Mostly Cloudy
11:35 AM 68.5 °F 64.4 °F 87% 29.68 in 7.0 mi SW 15.0 mph 18.4 mph N/A Rain Light Rain
11:55 AM 69.6 °F 62.6 °F 78% 29.68 in 10.0 mi SW 18.4 mph 23.0 mph N/A   Overcast
12:15 PM 70.7 °F 62.1 °F 74% 29.68 in 10.0 mi SW 16.1 mph 26.5 mph N/A   Overcast
12:35 PM 70.5 °F 61.0 °F 72% 29.67 in 10.0 mi WSW 18.4 mph 24.2 mph N/A   Overcast
12:55 PM 69.8 °F 61.0 °F 73% 29.67 in 10.0 mi WSW 15.0 mph 21.9 mph N/A   Overcast
1:15 PM 65.3 °F 60.3 °F 84% 29.68 in 4.0 mi WSW 9.2 mph 26.5 mph 0.04 in Rain Heavy Rain
1:35 PM 65.7 °F 61.9 °F 88% 29.68 in 10.0 mi WSW 10.4 mph - 0.06 in Rain , Thunderstorm Light Thunderstorms and Rain
1:55 PM 67.5 °F 63.0 °F 85% 29.69 in 10.0 mi West 4.6 mph - 0.06 in   Overcast
2:15 PM 68.0 °F 61.7 °F 80% 29.69 in 10.0 mi West 11.5 mph - N/A   Overcast
2:35 PM 68.2 °F 60.3 °F 76% 29.69 in 10.0 mi WNW 8.1 mph - N/A   Overcast
2:55 PM 69.4 °F 59.7 °F 71% 29.69 in 10.0 mi West 12.7 mph 16.1 mph N/A   Mostly Cloudy
3:15 PM 70.9 °F 59.5 °F 67% 29.70 in 10.0 mi West 11.5 mph - N/A   Mostly Cloudy
3:35 PM 70.3 °F 59.2 °F 68% 29.70 in 10.0 mi West 12.7 mph 16.1 mph N/A   Mostly Cloudy
3:55 PM 72.1 °F 57.0 °F 59% 29.69 in 10.0 mi West 15.0 mph 19.6 mph N/A   Overcast
4:15 PM 72.5 °F 53.4 °F 51% 29.69 in 10.0 mi WSW 12.7 mph 18.4 mph N/A   Scattered Clouds
4:35 PM 72.9 °F 54.0 °F 51% 29.68 in 10.0 mi West 11.5 mph - N/A   Scattered Clouds
4:55 PM 73.0 °F 52.9 °F 49% 29.69 in 10.0 mi West 18.4 mph 23.0 mph N/A   Scattered Clouds
5:15 PM - - N/A% 29.69 in 10.0 mi West 12.7 mph - N/A   Scattered Clouds
5:35 PM 70.3 °F 54.1 °F 56% 29.69 in 10.0 mi West 12.7 mph 17.3 mph N/A   Overcast
5:55 PM 70.0 °F 55.2 °F 59% 29.68 in 10.0 mi West 9.2 mph - N/A   Overcast
6:15 PM 71.6 °F 55.2 °F 56% 29.68 in 10.0 mi West 12.7 mph 18.4 mph N/A   Mostly Cloudy
6:35 PM 71.1 °F 54.0 °F 55% 29.68 in 10.0 mi West 9.2 mph 20.7 mph N/A   Mostly Cloudy
6:55 PM 69.1 °F 53.4 °F 57% 29.69 in 10.0 mi West 11.5 mph - N/A   Scattered Clouds
7:15 PM 68.5 °F 54.1 °F 60% 29.69 in 10.0 mi WSW 9.2 mph - N/A   Scattered Clouds
7:35 PM 68.4 °F 55.0 °F 62% 29.70 in 10.0 mi WSW 12.7 mph - N/A   Overcast
7:55 PM 68.2 °F 53.8 °F 60% 29.71 in 10.0 mi West 9.2 mph - N/A   Overcast
8:15 PM 67.8 °F 53.6 °F 60% 29.72 in 10.0 mi WSW 6.9 mph - N/A   Overcast
8:35 PM 67.5 °F 54.0 °F 62% 29.73 in 10.0 mi West 10.4 mph 17.3 mph N/A   Overcast
8:55 PM 66.6 °F 54.7 °F 66% 29.74 in 10.0 mi West 10.4 mph - N/A   Overcast
9:15 PM 65.3 °F 55.0 °F 69% 29.74 in 10.0 mi West 5.8 mph - N/A   Mostly Cloudy
9:35 PM 64.2 °F 55.8 °F 74% 29.75 in 10.0 mi WSW 8.1 mph - N/A   Mostly Cloudy
9:55 PM 64.4 °F 55.6 °F 73% 29.75 in 10.0 mi West 6.9 mph - N/A   Overcast
10:15 PM 64.4 °F 54.3 °F 70% 29.75 in 10.0 mi WNW 8.1 mph - N/A   Overcast
10:35 PM 63.9 °F 54.0 °F 70% 29.76 in 10.0 mi West 9.2 mph - N/A   Overcast
10:55 PM 62.8 °F 54.0 °F 73% 29.76 in 10.0 mi West 8.1 mph - N/A   Mostly Cloudy
11:15 PM 62.4 °F 54.0 °F 74% 29.76 in 10.0 mi WSW 8.1 mph - N/A   Mostly Cloudy
11:35 PM 62.4 °F 53.8 °F 73% 29.76 in 10.0 mi West 8.1 mph - N/A   Mostly Cloudy
11:55 PM 61.7 °F 53.6 °F 75% 29.76 in 10.0 mi WSW 8.1 mph - N/A   Mostly Cloudy